Regional Weather Roundup
Issued by NWS New Orleans/Baton Rouge, LA

Home | Current Version | Previous Version | Text Only | Print | Product List | Glossary On
Versions: 1 2 3 4 5 6 7 8 9 10 11 12 13 14 15 16 17 18 19 20 21 22 23 24 25 26 27 28 29 30 31 32 33 34 35 36 37 38 39 40 41 42 43 44 45 46 47 48 49 50
000
ASUS44 KLIX 292212
RWRLIX
NEW ORLEANS REGIONAL WEATHER ROUNDUP
NATIONAL WEATHER SERVICE NEW ORLEANS LA
500 PM CDT WED JUL 29 2015

NOTE: "FAIR" INDICATES FEW OR NO CLOUDS BELOW 12,000 FEET WITH NO
      SIGNIFICANT WEATHER AND/OR OBSTRUCTIONS TO VISIBILITY.
      SKY/WX - SKY CONDITION AND SIGNIFICANT WEATHER.
      TMP - AIR TEMPERATURE.     DP    - DEWPOINT TEMPERATURE.
      RH  - RELATIVE HUMIDITY.   PRES  - PRESSURE.
      HI  - HEAT INDEX.          WCI   - WIND CHILL INDEX.

*  THESE STATIONS ARE NOT NWS OR FAA STATIONS AND ARE NOT UNDER
   NWS QUALITY CONTROL.

LAZ038-040-048-061>063-065>067-069-292300-
SOUTHEAST LOUISIANA

CITY           SKY/WX    TMP DP  RH WIND       PRES   REMARKS
N.O. AUDUBON     N/A    101  75  42 MISG        N/A  HX 114
N.O. INTL ARPT MOSUNNY   94  74  52 NW16G22   29.95S HX 104
N.O. LAKEFRONT MOSUNNY   94  74  52 W6        29.95S HX 104
N.O. DOWNTOWN*   N/A     99  72  41 CALM      29.95R HX 107
RESERVE*         N/A     95  74  51 N9        29.96R HX 105
SLIDELL        PTSUNNY   94  79  61 SW7       29.93F HX 111
BATON ROUGE    MOSUNNY   96  75  50 VRB6      29.95S HX 108
BOOTHVILLE     MOSUNNY   92  73  53 SE5       29.97F HX 100
BELLE CHASSE   PTSUNNY   93  76  57 S8        29.95S HX 105
BOGALUSA*        N/A     97  71  42 S3G10     29.95S HX 104
GALLIANO*      NOT AVBL
NEW ROADS*       N/A    N/A N/A N/A NE10G17   29.97S
GONZALES*        N/A     87  71  58 NW6       29.96R
HAMMOND*       MOSUNNY   99  66  34 W7        29.96S HX 102
HOUMA*         MOSUNNY   97  75  49 SW9       29.99S HX 109
PORT FOURCHON* NOT AVBL

$$

MSZ070-080>082-292300-
SOUTHERN MISSISSIPPI

CITY           SKY/WX    TMP DP  RH WIND       PRES   REMARKS
MCCOMB         PTSUNNY   86  77  74 W7        29.96F HX  97
GULFPORT       CLOUDY    82  72  71 S8        29.95R THUNDER
BILOXI         CLOUDY    79  75  89 SW12      29.95F
PASCAGOULA     CLOUDY    83  78  85 SW3       29.95F
STENNIS ARPT*  TSTM      91  73  55 E12G23    29.94S HX 100

$$

COASTAL OBSERVATIONS
LAKE AND NEARSHORE STATIONS

STATION/POSITION TIME  TEMP    WIND        PRES    WAVE
                       AIR SEA DIR/SP/G            HT/PER
                 (UTC) (F)     (DEG/KT/KT) (MB)    (FT/S)
PASCAGOULA       2100   87                 1014.0
WAVELAND YACHT   2100   91 91              1014.4
GRAND ISLE       2100   90 90              1015.1
SOUTHWEST PASS   2100   99 87              1015.5
NEW CANAL        2100   92 90              1013.5
SHELL BEACH      2100   94 89              1013.8

OFFSHORE STATIONS

STATION/POSITION TIME  TEMP    WIND        PRES    WAVE
                       AIR SEA DIR/SP/G            HT/PER
                 (UTC) (F)     (DEG/KT/KT) (MB)    (FT/S)
64 S DAUPHIN ISL 2150   88 93  250/  8/ 10 1014.8    1/ 4

$$



USA.gov is the U.S. government's official web portal to all federal, state and local government web resources and services.